1500739200.93,27176,24.75,74424.3,15.35,-15.75,-17.11,0,*4A
1500739202.16,27177,24.75,74428.0,15.35,-15.57,-16.93,0,*40
1500739203.36,27178,24.75,74424.3,15.31,-15.49,-16.79,0,*40
1500739204.59,27179,24.75,74426.8,15.31,-15.35,-16.55,0,*44
1500739205.82,27180,24.75,74426.3,15.31,-14.75,-15.95,0,*48
1500739207.1,27181,24.75,74424.8,15.33,-14.79,-16.09,0,*41
1500739208.32,27182,24.75,74424.5,15.31,-15.21,-16.55,0,*45
1500739209.57,27183,24.75,74424.5,15.33,-14.89,-16.27,0,*40
1500739210.79,27184,24.75,74424.8,15.31,-14.75,-16.03,0,*40
1500739212.0,27185,24.75,74426.3,15.31,-14.37,-15.67,0,*46
1500739213.23,27186,24.75,74426.3,15.31,-14.65,-16.09,0,*49
1500739214.45,27187,24.75,74426.3,15.31,-14.79,-16.41,0,*49
1500739215.71,27188,24.75,74430.3,15.33,-14.47,-16.03,0,*4F
1500739216.95,27189,24.75,74426.3,15.31,-14.05,-15.63,0,*4F
1500739218.2,27190,24.75,74426.0,15.33,-14.01,-15.67,0,*45
1500739219.46,27191,24.75,74424.8,15.31,-14.47,-16.23,0,*47
1500739220.67,27192,24.75,74422.0,15.31,-14.33,-16.03,0,*45
1500739221.88,27193,24.75,74426.0,15.31,-14.15,-16.03,0,*40
1500739223.14,27194,24.75,74426.8,15.33,-14.01,-16.03,0,*40
1500739224.37,27195,24.75,74426.3,15.33,-13.73,-16.03,0,*43
1500739225.59,27196,24.75,74426.5,15.31,-13.65,-16.27,0,*43
1500739226.8,27197,24.75,74426.3,15.31,-13.51,-16.03,0,*43
1500739228.06,27198,24.75,74424.5,15.33,-13.29,-15.75,0,*43
1500739229.34,27199,24.75,74424.5,15.33,-13.37,-16.09,0,*45
1500739230.57,27200,24.75,74426.8,15.31,-13.73,-16.27,0,*48
1500739231.85,27201,24.75,74426.8,15.33,-13.37,-15.81,0,*44
1500739233.08,27202,24.75,74426.0,15.31,-13.47,-15.89,0,*4A
1500739234.31,27203,24.75,74424.3,15.31,-13.73,-16.27,0,*4B
1500739235.54,27204,24.75,74428.5,15.31,-14.19,-16.69,0,*4D
1500739236.77,27205,24.75,74426.8,15.31,-14.19,-16.69,0,*4C
1500739237.99,27206,24.75,74424.5,15.29,-15.07,-17.49,0,*4B
1500739239.24,27207,24.75,74428.5,15.29,-14.97,-17.35,0,*49
1500739240.46,27208,24.75,74426.0,15.29,-15.07,-17.49,0,*45
1500739241.72,27209,24.75,74426.3,15.25,-15.35,-17.69,0,*4B
1500739242.98,27210,24.75,74424.8,15.25,-15.75,-18.01,0,*46
1500739244.2,27211,24.75,74426.3,15.23,-15.89,-18.17,0,*45
1500739245.46,27212,24.75,74426.3,15.21,-15.71,-17.93,0,*40
1500739246.71,27213,24.75,74424.0,15.21,-15.85,-18.17,0,*49
1500739247.94,27214,24.75,74426.8,15.21,-16.59,-18.83,0,*41
1500739249.14,27215,24.75,74424.8,15.13,-16.79,-18.73,0,*4C
1500739250.37,27216,24.75,74426.3,15.13,-16.51,-18.49,0,*4C
1500739251.6,27217,24.75,74428.0,15.11,-16.03,-17.83,0,*41
1500739252.8,27218,24.75,74424.0,15.09,-15.99,-17.87,0,*43
1500739254.01,27219,24.75,74424.0,15.09,-15.99,-17.93,0,*47
1500739255.27,27220,24.75,74424.5,15.07,-16.17,-18.07,0,*44
1500739256.53,27221,24.75,74424.0,15.05,-16.27,-17.97,0,*42
1500739257.79,27222,24.75,74428.5,15.05,-16.51,-18.31,0,*43
1500739259.02,27223,24.75,74424.5,15.05,-16.09,-17.69,0,*4D
1500739260.28,27224,24.75,74424.5,15.03,-16.03,-17.59,0,*45
1500739261.52,27225,24.81,74428.3,15.01,-16.27,-17.87,0,*43
1500739262.77,27226,24.75,74428.8,15.01,-16.23,-17.79,0,*45
1500739264.0,27227,24.75,74426.5,15.01,-16.41,-18.01,0,*40
1500739265.24,27228,24.75,74424.0,14.95,-16.41,-18.07,0,*45
1500739266.47,27229,24.75,74424.8,14.95,-16.93,-18.41,0,*49
1500739267.69,27230,24.75,74424.5,14.95,-16.93,-18.49,0,*49
1500739268.95,27231,24.75,74426.0,14.93,-16.51,-18.01,0,*4C
1500739270.17,27232,24.75,74428.5,14.91,-16.59,-18.25,0,*43
1500739271.42,27233,24.75,74424.3,14.91,-17.11,-18.65,0,*4B
1500739272.65,27234,24.75,74426.5,14.87,-17.35,-18.83,0,*45
1500739273.88,27235,24.75,74426.3,14.89,-17.45,-18.79,0,*48
1500739275.15,27236,24.75,74426.0,14.83,-17.21,-18.55,0,*4D
1500739276.37,27237,24.75,74422.8,14.83,-16.93,-18.17,0,*42
1500739277.59,27238,24.75,74424.8,14.83,-16.93,-18.25,0,*4C
1500739278.82,27239,24.75,74426.0,14.81,-17.17,-18.49,0,*48
1500739280.02,27240,24.75,74424.0,14.77,-16.45,-17.73,0,*4F
1500739281.3,27241,24.75,74422.0,14.79,-16.09,-17.25,0,*4B
1500739282.55,27242,24.75,74424.0,14.79,-15.99,-17.25,0,*42
1500739283.74,27243,24.75,74424.0,14.77,-15.99,-17.31,0,*48
1500739284.99,27244,24.75,74426.0,14.75,-16.45,-17.79,0,*43
1500739286.25,27245,24.75,74426.0,14.75,-16.45,-17.97,0,*42
1500739287.5,27246,24.75,74424.8,14.77,-16.31,-17.93,0,*44
1500739288.72,27247,24.75,74424.0,14.71,-15.99,-17.69,0,*47
1500739289.97,27248,24.75,74424.0,14.75,-16.03,-17.79,0,*4D
1500739291.22,27249,24.75,74422.8,14.71,-16.51,-18.17,0,*48
1500739292.42,27250,24.75,74426.0,14.69,-15.99,-17.69,0,*48
1500739293.67,27251,24.75,74424.5,14.71,-15.75,-17.45,0,*4C
1500739294.88,27252,24.75,74420.5,14.69,-15.95,-17.69,0,*46
1500739296.09,27253,24.75,74424.3,14.69,-15.99,-17.87,0,*4B
1500739297.32,27254,24.75,74426.3,14.69,-15.75,-17.55,0,*41
1500739298.54,27255,24.75,74424.5,14.67,-15.67,-17.49,0,*40
1500739299.77,27256,24.75,74426.8,14.65,-15.71,-17.63,0,*4E
1500739301.02,27257,24.75,74420.5,14.65,-15.57,-17.59,0,*42
1500739302.24,27258,24.75,74424.5,14.65,-15.57,-17.73,0,*45
1500739303.44,27259,24.75,74424.0,14.65,-15.53,-17.73,0,*40
1500739304.69,27260,24.75,74428.5,14.63,-15.57,-17.69,0,*43
1500739305.97,27261,24.75,74426.8,14.63,-15.43,-17.55,0,*48
1500739307.2,27262,24.75,74422.8,14.61,-15.07,-17.41,0,*4C
1500739308.47,27263,24.75,74424.8,14.63,-14.75,-17.55,0,*4E
1500739309.7,27264,24.75,74426.0,14.59,-15.25,-18.17,0,*4D
1500739310.97,27265,24.75,74424.3,14.59,-16.09,-18.59,0,*4B
1500739312.18,27266,24.75,74426.3,14.57,-15.95,-18.41,0,*49
1500739313.41,27267,24.81,74430.0,14.57,-15.71,-18.35,0,*41
1500739314.63,27268,24.75,74422.0,14.53,-15.57,-18.41,0,*4D
1500739315.89,27269,24.75,74422.8,14.55,-15.29,-17.97,0,*47
1500739317.15,27270,24.75,74426.0,14.55,-15.57,-18.11,0,*47
1500739318.37,27271,24.75,74426.5,14.53,-16.37,-18.59,0,*49
1500739319.6,27272,24.75,74424.8,14.53,-15.85,-18.17,0,*4A
1500739320.82,27273,24.75,74420.5,14.47,-14.93,-16.97,0,*4E
1500739322.05,27274,24.75,74424.3,14.47,-14.55,-16.83,0,*46
1500739323.25,27275,24.75,74422.8,14.47,-14.11,-15.99,0,*4F
1500739324.5,27276,24.75,74426.8,14.47,-14.97,-16.23,0,*40
1500739325.69,27277,24.75,74420.8,14.47,-15.11,-16.89,0,*4E
1500739326.93,27278,24.75,74424.8,14.47,-15.39,-17.25,0,*4C
1500739328.16,27279,24.75,74422.5,14.45,-15.25,-16.97,0,*4A
1500739329.41,27280,24.75,74424.3,14.45,-14.93,-16.59,0,*42
1500739330.63,27281,24.75,74424.3,14.43,-15.01,-16.79,0,*4D
1500739331.83,27282,24.75,74424.5,14.43,-14.89,-16.89,0,*40
1500739333.04,27283,24.75,74426.5,14.43,-14.15,-16.45,0,*44
1500739334.24,27284,24.75,74422.8,14.43,-14.61,-16.93,0,*4B
1500739335.5,27285,24.75,74424.3,14.43,-16.13,-18.31,0,*4B
1500739336.74,27286,24.75,74426.0,14.39,-16.23,-18.59,0,*48
1500739337.96,27287,24.75,74426.5,14.39,-16.31,-18.65,0,*45
1500739339.2,27288,24.75,74426.0,14.39,-16.31,-18.59,0,*45
1500739340.43,27289,24.75,74422.8,14.39,-16.03,-18.31,0,*4B
1500739341.66,27290,24.75,74420.5,14.35,-16.31,-18.45,0,*4D
1500739342.91,27291,24.75,74424.5,14.37,-16.23,-18.17,0,*4A
1500739344.11,27292,24.75,74424.5,14.35,-16.41,-18.25,0,*4E
1500739345.37,27293,24.75,74422.3,14.33,-16.27,-18.07,0,*49
1500739346.57,27294,24.75,74422.3,14.31,-16.37,-18.25,0,*4D
1500739347.85,27295,24.75,74422.8,14.33,-16.17,-17.93,0,*4E
1500739349.05,27296,24.75,74424.3,14.31,-16.45,-18.25,0,*4A
1500739350.28,27297,24.75,74422.8,14.31,-15.95,-17.55,0,*4D
1500739351.51,27298,24.75,74420.3,14.31,-15.95,-17.41,0,*47
1500739352.74,27299,24.75,74422.0,14.31,-16.09,-17.49,0,*48
1500739354.0,27300,24.75,74420.5,14.31,-16.51,-18.01,0,*47
1500739355.28,27301,24.75,74422.5,14.25,-16.51,-17.93,0,*47
1500739356.55,27302,24.75,74422.8,14.25,-16.51,-17.93,0,*44
1500739357.77,27303,24.75,74420.5,14.27,-17.63,-19.07,0,*44
1500739359.02,27304,24.75,74424.5,14.25,-17.55,-18.65,0,*41
1500739360.25,27305,24.75,74422.8,14.23,-17.45,-18.49,0,*49
1500739361.45,27306,24.75,74426.0,14.23,-17.31,-18.25,0,*43
1500739362.71,27307,24.75,74422.0,14.21,-17.35,-18.31,0,*41
1500739363.95,27308,24.75,74420.5,14.21,-16.93,-17.83,0,*45
1500739365.17,27309,24.75,74422.0,14.19,-16.93,-17.69,0,*4B
1500739366.42,27310,24.75,74424.8,14.19,-16.79,-17.63,0,*4D
1500739367.67,27311,24.75,74426.8,14.21,-16.93,-17.63,0,*43
1500739368.95,27312,24.75,74420.5,14.21,-16.65,-17.25,0,*4B
1500739370.21,27313,24.75,74424.0,14.19,-16.45,-17.07,0,*43
1500739371.44,27314,24.75,74422.0,14.17,-16.41,-17.03,0,*4A
1500739372.73,27315,24.81,74426.0,14.21,-16.17,-16.69,0,*40
1500739373.96,27316,24.75,74420.3,14.21,-16.37,-16.93,0,*44
1500739375.21,27317,24.75,74422.8,14.21,-16.03,-16.51,0,*4C
1500739376.47,27318,24.75,74420.5,14.21,-15.75,-16.23,0,*44
1500739377.7,27319,24.75,74420.8,14.23,-15.57,-16.03,0,*45
1500739378.96,27320,24.81,74422.3,14.23,-15.43,-15.85,0,*47
1500739380.21,27321,24.75,74420.3,14.23,-15.43,-15.85,0,*46
1500739381.47,27322,24.75,74422.3,14.27,-15.35,-15.81,0,*44
1500739382.73,27323,24.75,74420.0,14.25,-15.39,-15.71,0,*44
1500739383.94,27324,24.75,74420.3,14.27,-15.25,-15.63,0,*4F
1500739385.14,27325,24.81,74424.5,14.31,-15.07,-15.63,0,*49
1500739386.4,27326,24.75,74422.5,14.33,-14.75,-15.53,0,*4F
1500739387.66,27327,24.75,74422.8,14.33,-14.43,-15.53,0,*4B
1500739388.91,27328,24.75,74420.5,14.37,-14.23,-15.53,0,*46
1500739390.11,27329,24.75,74422.0,14.35,-14.29,-15.75,0,*4B
1500739391.37,27330,24.81,74420.8,14.37,-14.61,-16.23,0,*4D
1500739392.63,27331,24.75,74420.5,14.35,-14.55,-16.17,0,*4E
1500739393.92,27332,24.75,74420.5,14.37,-13.97,-15.57,0,*41
1500739395.15,27333,24.75,74420.0,14.39,-13.65,-15.35,0,*47
1500739396.36,27334,24.75,74420.0,14.39,-13.73,-15.49,0,*4C
1500739397.62,27335,24.75,74420.3,14.39,-13.61,-15.35,0,*45
1500739398.87,27336,24.75,74420.3,14.41,-13.43,-15.43,0,*48
1500739400.1,27337,24.75,74420.3,14.41,-13.65,-15.75,0,*48
1500739401.39,27338,24.75,74422.0,14.41,-13.87,-15.81,0,*40
1500739402.62,27339,24.75,74420.3,14.43,-13.37,-15.15,0,*45
1500739403.83,27340,24.75,74416.5,14.43,-13.69,-15.25,0,*43
1500739405.07,27341,24.75,74422.8,14.43,-13.97,-15.15,0,*40
1500739406.3,27342,24.75,74424.8,14.45,-13.69,-14.65,0,*42
1500739407.57,27343,24.75,74424.0,14.49,-13.79,-14.51,0,*49
1500739408.77,27344,24.75,74424.5,14.47,-13.93,-14.37,0,*44
1500739410.02,27345,24.75,74422.0,14.49,-14.33,-14.97,0,*4C
1500739411.25,27346,24.75,74422.5,14.49,-15.63,-15.75,0,*46
1500739412.51,27347,24.75,74422.3,14.47,-15.43,-14.83,0,*43
1500739413.7,27348,24.75,74418.5,14.47,-14.65,-13.69,0,*4A
1500739414.92,27349,24.75,74418.8,14.47,-15.85,-14.65,0,*4F
1500739416.16,27350,24.75,74422.3,14.47,-14.05,-12.47,0,*48
1500739417.38,27351,24.81,74422.5,14.47,-13.33,-11.41,0,*4E
1500739418.58,27352,24.75,74420.5,14.47,-12.93,-9.79,0,*74
1500739419.83,27353,24.75,74422.5,14.49,-11.89,-10.23,0,*44
1500739421.09,27354,24.75,74422.3,14.49,-12.15,-10.93,0,*4E
1500739422.34,27355,24.75,74420.8,14.49,-12.75,-11.19,0,*4A
1500739423.55,27356,24.75,74424.0,14.53,-12.03,-10.89,0,*4B
1500739424.77,27357,24.75,74420.5,14.55,-12.03,-11.15,0,*48
1500739426.05,27358,24.75,74422.8,14.55,-11.89,-11.55,0,*42
1500739427.31,27359,24.81,74424.5,14.57,-12.11,-12.11,0,*40
1500739428.54,27360,24.75,74422.0,14.57,-12.15,-12.25,0,*49
1500739429.8,27361,24.81,74424.0,14.57,-11.55,-11.93,0,*41
1500739431.05,27362,24.75,74424.0,14.57,-11.33,-11.85,0,*45
1500739432.31,27363,24.75,74420.5,14.59,-11.11,-11.81,0,*4E
1500739433.57,27364,24.81,74424.3,14.63,-11.01,-11.89,0,*49
1500739434.8,27365,24.75,74424.8,14.63,-10.93,-12.03,0,*43
1500739436.0,27366,24.75,74422.8,14.65,-11.23,-12.43,0,*48
1500739437.23,27367,24.75,74422.3,14.65,-11.01,-12.53,0,*48
1500739438.46,27368,24.75,74426.3,14.67,-10.85,-12.43,0,*49
1500739439.69,27369,24.75,74422.8,14.71,-10.57,-12.39,0,*4D
1500739440.95,27370,24.75,74424.0,14.71,-10.67,-12.39,0,*46
1500739442.18,27371,24.75,74424.0,14.71,-10.93,-12.89,0,*47
1500739443.45,27372,24.75,74424.5,14.75,-10.79,-12.83,0,*4E
1500739444.7,27373,24.75,74426.5,14.75,-10.75,-13.11,0,*49
1500739445.96,27374,24.81,74424.8,14.77,-10.75,-13.29,0,*47
1500739447.21,27375,24.75,74426.3,14.77,-10.75,-13.37,0,*49
1500739448.44,27376,24.75,74424.3,14.79,-10.57,-13.51,0,*44
1500739449.66,27377,24.75,74426.0,14.81,-11.37,-14.23,0,*47
1500739450.87,27378,24.75,74422.0,14.81,-11.41,-14.33,0,*48
1500739452.12,27379,24.75,74424.5,14.83,-11.23,-14.05,0,*4A
1500739453.35,27380,24.75,74422.3,14.85,-11.51,-14.19,0,*42
1500739454.6,27381,24.75,74424.8,14.85,-11.85,-14.55,0,*42
1500739455.85,27382,24.75,74422.0,14.85,-11.97,-14.75,0,*40
1500739457.07,27383,24.75,74420.0,14.85,-12.43,-15.01,0,*49
1500739458.3,27384,24.75,74422.8,14.85,-11.89,-14.61,0,*4C
1500739459.54,27385,24.75,74424.5,14.89,-12.07,-14.65,0,*40
1500739460.83,27386,24.75,74424.0,14.87,-11.93,-14.51,0,*44
1500739462.05,27387,24.75,74422.0,14.89,-11.89,-14.33,0,*44
1500739463.28,27388,24.75,74420.5,14.89,-12.03,-14.51,0,*4E
1500739464.52,27389,24.75,74420.8,14.89,-12.11,-14.65,0,*4B
1500739465.8,27390,24.75,74422.0,14.91,-12.07,-14.47,0,*4D
1500739467.06,27391,24.75,74422.8,14.91,-12.07,-14.29,0,*44
1500739468.31,27392,24.75,74420.5,14.93,-11.97,-14.05,0,*41
1500739469.54,27393,24.75,74426.0,14.93,-11.85,-14.19,0,*4E
1500739470.79,27394,24.75,74422.8,14.91,-12.15,-14.33,0,*49
1500739472.02,27395,24.75,74424.3,14.93,-12.47,-14.79,0,*43
1500739473.3,27396,24.75,74422.3,14.95,-12.53,-14.75,0,*4F
1500739474.56,27397,24.75,74426.0,14.99,-13.11,-15.21,0,*45
1500739475.79,27398,24.75,74424.0,14.99,-13.07,-15.11,0,*4E
1500739477.04,27399,24.75,74424.0,14.95,-13.01,-15.15,0,*41
1500739478.29,27400,24.81,74426.3,14.99,-12.65,-14.69,0,*43
1500739479.55,27401,24.75,74420.3,14.99,-12.75,-14.61,0,*4B
1500739480.75,27402,24.75,74422.5,15.01,-12.97,-14.69,0,*4C
1500739481.96,27403,24.75,74420.3,15.01,-13.23,-15.11,0,*4D
1500739483.2,27404,24.75,74422.0,15.01,-13.33,-15.25,0,*4C
1500739484.44,27405,24.75,74420.3,15.01,-13.19,-14.97,0,*4D
1500739485.67,27406,24.75,74420.5,15.03,-13.19,-15.07,0,*44
1500739486.96,27407,24.75,74422.0,15.03,-13.01,-14.75,0,*48
1500739488.17,27408,24.75,74422.3,15.01,-12.93,-14.65,0,*4E
1500739489.4,27409,24.75,74420.8,15.07,-12.89,-14.61,0,*46
1500739490.65,27410,24.75,74422.8,15.07,-12.89,-14.51,0,*4D
1500739491.91,27411,24.81,74422.8,15.07,-13.01,-14.61,0,*4E
1500739493.13,27412,24.81,74422.8,15.07,-13.15,-14.69,0,*40
1500739494.35,27413,24.81,74424.0,15.07,-13.15,-14.61,0,*49
1500739495.56,27414,24.75,74420.8,15.09,-13.07,-14.65,0,*47
1500739496.83,27415,24.81,74422.8,15.11,-12.61,-14.47,0,*4E
1500739498.09,27416,24.75,74422.3,15.09,-12.65,-14.79,0,*4D
1500739499.31,27417,24.75,74422.8,15.11,-12.43,-14.65,0,*4C
1500739500.55,27418,24.75,74422.3,15.09,-12.25,-14.55,0,*49
1500739501.77,27419,24.75,74422.0,15.13,-12.43,-14.79,0,*4D
1500739503.0,27420,24.75,74422.3,15.13,-12.21,-14.51,0,*49
1500739504.23,27421,24.75,74422.8,15.13,-12.15,-14.61,0,*4C
1500739505.46,27422,24.75,74422.3,15.13,-12.21,-14.75,0,*4D
1500739506.69,27423,24.75,74420.5,15.13,-12.07,-14.61,0,*4D
1500739507.92,27424,24.75,74422.0,15.13,-12.21,-14.51,0,*4D
1500739509.18,27425,24.75,74420.0,15.15,-12.15,-14.23,0,*48
1500739510.45,27426,24.81,74424.5,15.15,-11.89,-13.83,0,*40
1500739511.7,27427,24.75,74420.8,15.15,-11.85,-13.69,0,*49
1500739512.95,27428,24.75,74422.0,15.21,-11.73,-13.65,0,*44
1500739514.22,27429,24.75,74422.3,15.21,-11.81,-13.79,0,*45
1500739515.45,27430,24.75,74422.0,15.21,-12.25,-14.33,0,*49
1500739516.68,27431,24.81,74424.0,15.21,-12.25,-14.11,0,*48
1500739517.94,27432,24.75,74424.0,15.21,-12.47,-14.05,0,*4A
1500739519.19,27433,24.75,74422.3,15.25,-12.29,-13.79,0,*4B
1500739520.4,27434,24.81,74422.3,15.23,-12.93,-14.33,0,*42
1500739521.65,27435,24.75,74420.5,15.25,-13.33,-14.65,0,*4D
1500739522.88,27436,24.81,74424.5,15.23,-13.29,-14.37,0,*44
1500739524.11,27437,24.81,74426.5,15.25,-13.43,-14.61,0,*4C
1500739525.34,27438,24.75,74422.8,15.25,-13.43,-14.37,0,*40
1500739526.57,27439,24.81,74422.8,15.27,-13.43,-14.55,0,*47
1500739527.81,27440,24.75,74422.8,15.27,-14.11,-15.21,0,*4B
1500739529.03,27441,24.81,74424.5,15.27,-14.15,-15.15,0,*49
1500739530.29,27442,24.81,74424.5,15.27,-13.97,-15.01,0,*42
1500739531.55,27443,24.81,74422.5,15.27,-13.87,-14.83,0,*49
1500739532.82,27444,24.75,74422.0,15.29,-14.05,-15.29,0,*4C
1500739534.05,27445,24.75,74422.5,15.27,-14.89,-15.89,0,*4D
1500739535.29,27446,24.75,74422.5,15.29,-14.93,-16.03,0,*4A
1500739536.53,27447,24.75,74422.0,15.27,-14.61,-15.57,0,*4A
1500739537.74,27448,24.75,74418.0,15.27,-14.61,-15.49,0,*4A
1500739538.98,27449,24.81,74422.3,15.27,-14.47,-15.11,0,*42
1500739540.22,27450,24.81,74420.0,15.27,-14.15,-14.55,0,*4C
1500739541.46,27451,24.75,74418.8,15.27,-13.55,-13.97,0,*47
1500739542.68,27452,24.75,74418.5,15.29,-13.55,-14.11,0,*43
1500739543.93,27453,24.81,74420.8,15.31,-13.01,-13.37,0,*49
1500739545.16,27454,24.81,74422.8,15.33,-12.89,-13.19,0,*41
1500739546.38,27455,24.75,74420.3,15.31,-13.07,-13.37,0,*49
1500739547.63,27456,24.75,74422.3,15.33,-13.61,-13.93,0,*46
1500739548.87,27457,24.75,74422.8,15.33,-13.47,-13.87,0,*46
1500739550.11,27458,24.81,74424.3,15.35,-13.43,-13.97,0,*4A
1500739551.34,27459,24.81,74424.3,15.35,-13.61,-14.11,0,*42
1500739552.58,27460,24.81,74424.5,15.37,-14.11,-14.43,0,*4D
1500739553.84,27461,24.81,74424.0,15.37,-14.01,-14.19,0,*42
1500739555.09,27462,24.81,74420.8,15.37,-13.87,-14.11,0,*40
1500739556.31,27463,24.75,74422.3,15.39,-13.79,-13.55,0,*49
1500739557.51,27464,24.75,74418.5,15.39,-13.55,-13.23,0,*41
1500739558.74,27465,24.75,74422.3,15.43,-13.79,-13.23,0,*43
1500739559.97,27466,24.81,74420.5,15.43,-13.79,-13.19,0,*49
1500739561.23,27467,24.75,74418.8,15.43,-14.05,-13.33,0,*4C
1500739562.49,27468,24.81,74424.0,15.45,-13.83,-13.19,0,*44
1500739563.72,27469,24.81,74420.0,15.45,-13.69,-13.15,0,*4D
1500739564.97,27470,24.75,74420.3,15.45,-13.69,-13.33,0,*41
1500739566.19,27471,24.75,74420.8,15.45,-13.73,-13.43,0,*4C
1500739567.39,27472,24.75,74420.3,15.47,-13.55,-13.15,0,*4A
1500739568.62,27473,24.81,74422.8,15.49,-13.37,-13.11,0,*45
1500739569.83,27474,24.75,74422.3,15.47,-13.55,-13.19,0,*40
1500739571.05,27475,24.81,74424.5,15.47,-13.61,-13.43,0,*49
1500739572.28,27476,24.81,74420.5,15.51,-13.55,-13.43,0,*4A
1500739573.53,27477,24.81,74424.3,15.51,-13.83,-13.69,0,*48
1500739574.76,27478,24.81,74422.8,15.51,-13.69,-13.65,0,*4F
1500739576.03,27479,24.81,74420.5,15.51,-13.79,-13.83,0,*47
1500739577.32,27480,24.81,74422.3,15.51,-13.83,-13.83,0,*44
1500739578.59,27481,24.75,74418.8,15.55,-13.87,-13.87,0,*41
1500739579.88,27482,24.81,74420.5,15.55,-14.05,-14.05,0,*42
1500739581.12,27483,24.81,74422.0,15.55,-14.15,-14.15,0,*43
1500739582.4,27484,24.75,74420.0,15.55,-14.05,-14.05,0,*44
1500739583.66,27485,24.81,74420.3,15.55,-14.01,-13.93,0,*49
1500739584.94,27486,24.75,74416.8,15.55,-14.01,-14.05,0,*42
1500739586.17,27487,24.75,74416.8,15.57,-13.93,-14.05,0,*4D
1500739587.46,27488,24.81,74420.0,15.59,-13.83,-14.01,0,*49
1500739588.69,27489,24.75,74422.5,15.59,-14.11,-14.29,0,*4E
1500739589.94,27490,24.75,74420.3,15.59,-13.87,-14.11,0,*45
1500739591.17,27491,24.75,74420.5,15.61,-13.97,-14.19,0,*46
1500739592.41,27492,24.81,74422.8,15.61,-14.11,-14.47,0,*47
1500739593.61,27493,24.81,74420.8,15.61,-14.19,-14.37,0,*49
1500739594.84,27494,24.81,74420.3,15.61,-14.33,-14.51,0,*46
1500739596.07,27495,24.81,74420.3,15.61,-14.19,-14.47,0,*48
1500739597.28,27496,24.81,74420.0,15.61,-14.23,-14.61,0,*46
1500739598.48,27497,24.81,74420.3,15.61,-14.33,-14.61,0,*46
1500739599.71,27498,24.81,74420.5,15.61,-14.11,-14.47,0,*4D
1500739600.91,27499,24.81,74424.8,15.61,-13.93,-14.23,0,*43
1500739602.17,27500,24.81,74420.8,15.63,-13.83,-14.19,0,*48
1500739603.4,27501,24.81,74420.3,15.61,-13.97,-14.37,0,*42
1500739604.66,27502,24.75,74420.3,15.63,-13.83,-14.33,0,*42
1500739605.92,27503,24.81,74422.8,15.63,-13.51,-14.05,0,*49
1500739607.14,27504,24.81,74420.5,15.69,-13.87,-14.29,0,*41
1500739608.38,27505,24.81,74422.3,15.67,-14.15,-14.61,0,*4E
1500739609.63,27506,24.75,74422.3,15.69,-13.97,-14.43,0,*4E
1500739610.86,27507,24.81,74420.3,15.69,-13.83,-14.11,0,*4D
1500739612.11,27508,24.75,74420.0,15.69,-14.51,-14.75,0,*48
1500739613.31,27509,24.81,74420.8,15.69,-15.11,-15.15,0,*4B
1500739614.56,27510,24.81,74422.3,15.67,-15.81,-16.41,0,*46
1500739615.82,27511,24.81,74422.8,15.67,-16.09,-16.37,0,*45
1500739617.07,27512,24.81,74420.8,15.67,-16.17,-16.45,0,*4C
1500739618.3,27513,24.75,74420.3,15.63,-16.75,-16.83,0,*47
1500739619.58,27514,24.81,74420.8,15.63,-17.03,-17.03,0,*49
1500739620.81,27515,24.81,74420.8,15.61,-16.97,-17.11,0,*45
1500739622.06,27516,24.81,74422.3,15.61,-17.03,-17.11,0,*4A
1500739623.32,27517,24.81,74420.0,15.57,-17.21,-17.21,0,*4D
1500739624.55,27518,24.81,74420.5,15.57,-17.35,-17.21,0,*47
1500739625.78,27519,24.81,74418.8,15.57,-17.83,-17.63,0,*4D
1500739627.01,27520,24.75,74418.0,15.53,-17.69,-17.45,0,*43
1500739628.24,27521,24.81,74418.8,15.53,-17.11,-16.83,0,*46
1500739629.46,27522,24.75,74418.5,15.49,-16.93,-16.69,0,*41
1500739630.67,27523,24.81,74420.5,15.49,-16.89,-16.59,0,*48
1500739631.87,27524,24.75,74418.3,15.49,-16.79,-16.55,0,*4C
1500739633.1,27525,24.81,74418.8,15.49,-17.17,-16.93,0,*4E
1500739634.39,27526,24.81,74418.3,15.45,-17.25,-17.07,0,*4C
1500739635.61,27527,24.81,74418.8,15.45,-16.37,-16.37,0,*4D
1500739636.84,27528,24.81,74422.0,15.39,-15.95,-15.81,0,*4C
1500739638.1,27529,24.75,74416.0,15.43,-16.13,-16.13,0,*45
1500739639.35,27530,24.81,74418.5,15.39,-16.27,-16.17,0,*43
1500739640.58,27531,24.81,74420.8,15.39,-16.41,-16.31,0,*46
1500739641.8,27532,24.75,74416.3,15.37,-16.59,-16.45,0,*41
1500739643.03,27533,24.81,74420.8,15.37,-16.59,-16.37,0,*45
1500739644.28,27534,24.81,74418.0,15.35,-16.65,-16.31,0,*49
1500739645.53,27535,24.81,74420.8,15.37,-16.31,-15.99,0,*4A
1500739646.79,27536,24.81,74420.3,15.37,-15.89,-15.75,0,*4B
1500739648.03,27537,24.81,74418.8,15.35,-15.21,-15.57,0,*4A
1500739649.27,27538,24.81,74418.0,15.35,-14.55,-15.15,0,*41
1500739650.48,27539,24.81,74420.0,15.35,-14.29,-15.15,0,*4B
1500739651.74,27540,24.81,74418.0,15.35,-13.33,-14.01,0,*4D
1500739652.98,27541,24.81,74418.3,15.33,-13.15,-13.37,0,*4C
1500739654.24,27542,24.81,74418.3,15.33,-13.51,-13.29,0,*40
1500739655.47,27543,24.81,74416.0,15.33,-13.73,-13.19,0,*42
1500739656.7,27544,24.75,74416.5,15.35,-14.43,-13.11,0,*4F
1500739657.95,27545,24.81,74422.3,15.33,-15.49,-14.01,0,*45
1500739659.18,27546,24.81,74422.3,15.31,-15.95,-14.51,0,*40
1500739660.42,27547,24.81,74422.8,15.31,-16.09,-14.65,0,*40
1500739661.64,27548,24.81,74420.5,15.33,-15.67,-14.61,0,*42
1500739662.87,27549,24.81,74420.0,15.31,-15.95,-14.93,0,*41
1500739664.12,27550,24.81,74422.5,15.31,-15.81,-14.93,0,*4C
1500739665.35,27551,24.81,74416.8,15.31,-15.67,-14.79,0,*41
1500739666.58,27552,24.81,74420.8,15.33,-15.63,-14.89,0,*4B
1500739667.8,27553,24.75,74416.3,15.33,-15.67,-15.07,0,*49
1500739669.05,27554,24.81,74420.5,15.33,-15.25,-14.75,0,*4C
1500739670.33,27555,24.81,74418.5,15.33,-15.01,-14.47,0,*4A
1500739671.56,27556,24.81,74422.0,15.35,-14.43,-14.15,0,*4F
1500739672.79,27557,24.81,74424.3,15.35,-14.43,-14.33,0,*4A
1500739674.05,27558,24.81,74420.8,15.33,-14.05,-14.19,0,*49
1500739675.3,27559,24.81,74420.3,15.33,-13.65,-14.01,0,*40
1500739676.5,27560,24.81,74420.8,15.31,-13.47,-13.73,0,*4A
1500739677.74,27561,24.81,74420.3,15.33,-13.15,-13.37,0,*4E
1500739678.99,27562,24.81,74422.8,15.33,-13.07,-13.33,0,*4A
1500739680.24,27563,24.81,74418.0,15.37,-12.83,-13.11,0,*42
1500739681.49,27564,24.81,74418.5,15.37,-12.75,-12.89,0,*4C
1500739682.72,27565,24.81,74420.8,15.37,-13.43,-13.55,0,*49
1500739683.94,27566,24.81,74422.0,15.39,-13.55,-13.79,0,*4D
1500739685.14,27567,24.81,74420.8,15.43,-13.51,-13.65,0,*48
1500739686.34,27568,24.81,74422.0,15.43,-13.47,-13.65,0,*40
1500739687.54,27569,24.81,74422.3,15.43,-13.43,-13.65,0,*45
1500739688.74,27570,24.81,74422.8,15.43,-13.23,-13.51,0,*4C
1500739690.0,27571,24.81,74422.0,15.45,-13.19,-13.33,0,*46
1500739691.22,27572,24.81,74422.8,15.45,-12.97,-13.15,0,*46
1500739692.45,27573,24.81,74420.0,15.47,-12.61,-12.89,0,*48
1500739693.69,27574,24.81,74422.0,15.47,-12.57,-13.01,0,*4B
1500739694.92,27575,24.81,74422.0,15.47,-12.61,-13.11,0,*4E